Location: Harwich
(41.7160°N, 69.9939°W)
Time: 01:16:41
(UTC+02:00)

AO-27 - Pass Details

Date: 18 September 2024
Orbit: 783 x 796 km, 98.8° (Epoch: 04 October)

Event Time Altitude Azimuth Distance (km) Brightness Sun altitude
Exits shadow 03:57:15 39° 290° (WNW) 1,175 8.8 -33.9°
Drops below altitude 10° 04:01:14 10° 333° (NNW) 2,365 10.8 -34.5°
Sets 04:03:41 0° 340° (NNW) 3,297 11.7 -34.8°
